Time,TemperatureF,DewpointF,PressureIn,WindDirection,WindDirectionDegrees,WindSpeedMPH,WindSpeedGustMPH,Humidity,HourlyPrecipIn,Conditions,Clouds,dailyrainin,SolarRadiationWatts/m^2,SoftwareType,DateUTC
2013-08-25 00:10:00,78.5,70.3,30.00,SW,221,0.0,1.0,76,0.00,,,0.00,0,Wunderground v.1.15,2013-08-25 05:10:00,
2013-08-25 00:20:00,78.1,69.9,30.00,ESE,114,0.0,0.0,76,0.00,,,0.00,0,Wunderground v.1.15,2013-08-25 05:20:00,
2013-08-25 00:30:00,77.9,69.7,30.00,West,265,0.0,0.0,76,0.00,,,0.00,0,Wunderground v.1.15,2013-08-25 05:30:00,
2013-08-25 00:40:00,77.7,69.9,30.00,SW,226,0.0,0.0,77,0.00,,,0.00,0,Wunderground v.1.15,2013-08-25 05:40:00,
2013-08-25 00:50:00,77.7,69.9,29.99,SE,125,0.0,0.0,77,0.00,,,0.00,0,Wunderground v.1.15,2013-08-25 05:50:00,
2013-08-25 01:00:00,77.6,70.2,29.99,SE,126,0.0,0.0,78,0.00,,,0.00,0,Wunderground v.1.15,2013-08-25 06:00:00,
2013-08-25 01:10:00,77.4,70.0,29.99,WSW,250,0.0,0.0,78,0.00,,,0.00,0,Wunderground v.1.15,2013-08-25 06:10:00,
2013-08-25 01:20:00,77.4,70.0,30.00,East,82,1.0,1.0,78,0.00,,,0.00,0,Wunderground v.1.15,2013-08-25 06:20:00,
2013-08-25 01:30:00,77.2,69.8,30.00,SSW,194,1.0,1.0,78,0.00,,,0.00,0,Wunderground v.1.15,2013-08-25 06:30:00,
2013-08-25 01:40:00,77.2,70.2,30.00,East,101,0.0,0.0,79,0.00,,,0.00,0,Wunderground v.1.15,2013-08-25 06:40:00,
2013-08-25 01:50:00,77.0,70.0,30.00,SSW,194,0.0,0.0,79,0.00,,,0.00,0,Wunderground v.1.15,2013-08-25 06:50:00,
2013-08-25 02:00:00,76.8,69.8,30.00,South,171,0.0,0.0,79,0.00,,,0.00,0,Wunderground v.1.15,2013-08-25 07:00:00,
2013-08-25 02:10:00,76.5,69.9,30.00,West,265,0.0,0.0,80,0.00,,,0.00,0,Wunderground v.1.15,2013-08-25 07:10:00,
2013-08-25 02:20:00,76.3,69.7,30.00,South,171,0.0,0.0,80,0.00,,,0.00,0,Wunderground v.1.15,2013-08-25 07:20:00,
2013-08-25 02:30:00,76.1,69.8,30.00,South,180,1.0,1.0,81,0.00,,,0.00,0,Wunderground v.1.15,2013-08-25 07:30:00,
2013-08-25 02:40:00,76.0,69.7,30.00,SSE,157,0.0,0.0,81,0.00,,,0.00,0,Wunderground v.1.15,2013-08-25 07:40:00,
2013-08-25 02:50:00,75.8,69.6,30.00,South,173,0.0,0.0,81,0.00,,,0.00,0,Wunderground v.1.15,2013-08-25 07:50:00,
2013-08-25 03:00:00,75.6,69.7,30.00,SSE,160,0.0,0.0,82,0.00,,,0.00,0,Wunderground v.1.15,2013-08-25 08:00:00,
2013-08-25 03:10:00,75.4,69.5,30.01,South,172,0.0,0.0,82,0.00,,,0.00,0,Wunderground v.1.15,2013-08-25 08:10:00,
2013-08-25 03:20:00,75.3,69.4,30.01,WSW,252,0.0,0.0,82,0.00,,,0.00,0,Wunderground v.1.15,2013-08-25 08:20:00,
2013-08-25 03:30:00,75.1,69.2,30.01,SSW,198,0.0,4.0,82,0.00,,,0.00,0,Wunderground v.1.15,2013-08-25 08:30:00,
2013-08-25 03:40:00,74.9,69.4,30.01,SSE,161,0.0,0.0,83,0.00,,,0.00,0,Wunderground v.1.15,2013-08-25 08:40:00,
2013-08-25 03:50:00,74.7,69.2,30.01,South,190,0.0,3.0,83,0.00,,,0.00,0,Wunderground v.1.15,2013-08-25 08:50:00,
2013-08-25 04:00:00,74.6,69.1,30.01,South,180,0.0,0.0,83,0.00,,,0.00,0,Wunderground v.1.15,2013-08-25 09:00:00,
2013-08-25 04:10:00,74.4,69.2,30.01,SW,221,0.0,0.0,84,0.00,,,0.00,0,Wunderground v.1.15,2013-08-25 09:10:00,
2013-08-25 04:20:00,74.2,69.1,30.02,SW,226,0.0,0.0,84,0.00,,,0.00,0,Wunderground v.1.15,2013-08-25 09:20:00,
2013-08-25 04:30:00,74.0,68.9,30.02,SW,227,0.0,0.0,84,0.00,,,0.00,0,Wunderground v.1.15,2013-08-25 09:30:00,
2013-08-25 04:40:00,74.0,68.9,30.03,SSW,213,0.0,0.0,84,0.00,,,0.00,0,Wunderground v.1.15,2013-08-25 09:40:00,
2013-08-25 04:50:00,73.9,68.8,30.03,SSW,210,0.0,0.0,84,0.00,,,0.00,0,Wunderground v.1.15,2013-08-25 09:50:00,
2013-08-25 05:00:00,73.9,69.1,30.03,SW,215,0.0,0.0,85,0.00,,,0.00,0,Wunderground v.1.15,2013-08-25 10:00:00,
2013-08-25 05:10:00,73.7,68.9,30.03,SW,219,0.0,0.0,85,0.00,,,0.00,0,Wunderground v.1.15,2013-08-25 10:10:00,
2013-08-25 05:20:00,73.5,68.7,30.03,SSW,211,0.0,0.0,85,0.00,,,0.00,0,Wunderground v.1.15,2013-08-25 10:20:00,
2013-08-25 05:30:00,73.5,68.7,30.03,South,190,0.0,0.0,85,0.00,,,0.00,0,Wunderground v.1.15,2013-08-25 10:30:00,
2013-08-25 05:40:00,73.5,68.7,30.03,South,190,0.0,0.0,85,0.00,,,0.00,0,Wunderground v.1.15,2013-08-25 10:40:00,
2013-08-25 05:50:00,73.3,68.5,30.03,South,190,0.0,0.0,85,0.00,,,0.00,0,Wunderground v.1.15,2013-08-25 10:50:00,
2013-08-25 06:00:00,73.3,68.5,30.03,ESE,109,0.0,0.0,85,0.00,,,0.00,0,Wunderground v.1.15,2013-08-25 11:00:00,
2013-08-25 06:10:00,73.2,68.4,30.04,ESE,119,0.0,0.0,85,0.00,,,0.00,0,Wunderground v.1.15,2013-08-25 11:10:00,
2013-08-25 06:20:00,73.2,68.8,30.05,ESE,119,0.0,0.0,86,0.00,,,0.00,0,Wunderground v.1.15,2013-08-25 11:20:00,
2013-08-25 06:30:00,73.0,68.6,30.05,ESE,119,0.0,0.0,86,0.00,,,0.00,0,Wunderground v.1.15,2013-08-25 11:30:00,
2013-08-25 06:40:00,72.8,68.4,30.05,ESE,119,0.0,0.0,86,0.00,,,0.00,0,Wunderground v.1.15,2013-08-25 11:40:00,
2013-08-25 06:50:00,72.8,68.4,30.05,ESE,119,0.0,0.0,86,0.00,,,0.00,7,Wunderground v.1.15,2013-08-25 11:50:00,
2013-08-25 07:00:00,72.8,68.7,30.05,ESE,119,0.0,0.0,87,0.00,,,0.00,14,Wunderground v.1.15,2013-08-25 12:00:00,
2013-08-25 07:10:00,73.0,68.9,30.06,ESE,119,0.0,0.0,87,0.00,,,0.00,28,Wunderground v.1.15,2013-08-25 12:10:00,
2013-08-25 07:20:00,73.3,68.9,30.06,ESE,103,0.0,0.0,86,0.00,,,0.00,46,Wunderground v.1.15,2013-08-25 12:20:00,
2013-08-25 07:30:00,73.9,69.1,30.06,ESE,102,0.0,0.0,85,0.00,,,0.00,70,Wunderground v.1.15,2013-08-25 12:30:00,
2013-08-25 07:40:00,74.4,69.2,30.06,SSE,155,0.0,0.0,84,0.00,,,0.00,95,Wunderground v.1.15,2013-08-25 12:40:00,
2013-08-25 07:50:00,75.1,69.2,30.06,SSE,155,0.0,0.0,82,0.00,,,0.00,118,Wunderground v.1.15,2013-08-25 12:50:00,
2013-08-25 08:00:00,75.8,69.6,30.06,South,184,0.0,0.0,81,0.00,,,0.00,146,Wunderground v.1.15,2013-08-25 13:00:00,
2013-08-25 08:10:00,76.3,69.7,30.06,SSE,154,0.0,0.0,80,0.00,,,0.00,172,Wunderground v.1.15,2013-08-25 13:10:00,
2013-08-25 08:20:00,77.0,69.6,30.06,East,80,0.0,0.0,78,0.00,,,0.00,202,Wunderground v.1.15,2013-08-25 13:20:00,
2013-08-25 08:30:00,77.6,69.8,30.06,SW,223,0.0,0.0,77,0.00,,,0.00,232,Wunderground v.1.15,2013-08-25 13:30:00,
2013-08-25 08:40:00,77.9,70.1,30.06,South,187,0.0,0.0,77,0.00,,,0.00,265,Wunderground v.1.15,2013-08-25 13:40:00,
2013-08-25 08:50:00,78.6,70.4,30.07,South,183,1.0,1.0,76,0.00,,,0.00,295,Wunderground v.1.15,2013-08-25 13:50:00,
2013-08-25 09:00:00,79.2,70.6,30.07,SSW,196,1.0,1.0,75,0.00,,,0.00,325,Wunderground v.1.15,2013-08-25 14:00:00,
2013-08-25 09:10:00,79.9,70.5,30.07,SSW,202,1.0,1.0,73,0.00,,,0.00,355,Wunderground v.1.15,2013-08-25 14:10:00,
2013-08-25 09:20:00,80.7,70.8,30.05,SSE,162,0.0,0.0,72,0.00,,,0.00,388,Wunderground v.1.15,2013-08-25 14:20:00,
2013-08-25 09:30:00,80.9,70.6,30.05,SW,217,1.0,4.0,71,0.00,,,0.00,415,Wunderground v.1.15,2013-08-25 14:30:00,
2013-08-25 09:40:00,81.4,70.2,30.05,WSW,256,2.0,7.0,69,0.00,,,0.00,445,Wunderground v.1.15,2013-08-25 14:40:00,
2013-08-25 09:50:00,81.8,70.6,30.05,SW,224,2.0,2.0,69,0.00,,,0.00,475,Wunderground v.1.15,2013-08-25 14:50:00,
2013-08-25 10:00:00,82.8,71.2,30.05,SSE,150,1.0,9.0,68,0.00,,,0.00,506,Wunderground v.1.15,2013-08-25 15:00:00,
2013-08-25 10:10:00,83.0,71.3,30.05,South,173,2.0,2.0,68,0.00,,,0.00,531,Wunderground v.1.15,2013-08-25 15:10:00,
2013-08-25 10:20:00,84.0,71.4,30.05,SW,223,1.0,1.0,66,0.00,,,0.00,570,Wunderground v.1.15,2013-08-25 15:20:00,
2013-08-25 10:30:00,84.3,71.2,30.05,SSW,211,1.0,5.0,65,0.00,,,0.00,592,Wunderground v.1.15,2013-08-25 15:30:00,
2013-08-25 10:40:00,84.7,71.2,30.05,SW,220,2.0,3.0,64,0.00,,,0.00,624,Wunderground v.1.15,2013-08-25 15:40:00,
2013-08-25 10:50:00,85.3,71.7,30.05,SSW,208,2.0,6.0,64,0.00,,,0.00,640,Wunderground v.1.15,2013-08-25 15:50:00,
2013-08-25 11:00:00,85.7,71.7,30.05,SW,217,2.0,5.0,63,0.00,,,0.00,656,Wunderground v.1.15,2013-08-25 16:00:00,
2013-08-25 11:10:00,86.3,71.7,30.04,SSE,149,2.0,2.0,62,0.00,,,0.00,675,Wunderground v.1.15,2013-08-25 16:10:00,
2013-08-25 11:20:00,87.2,72.6,30.03,WSW,247,1.0,5.0,62,0.00,,,0.00,696,Wunderground v.1.15,2013-08-25 16:20:00,
2013-08-25 11:30:00,87.4,71.8,30.03,WSW,240,2.0,2.0,60,0.00,,,0.00,714,Wunderground v.1.15,2013-08-25 16:30:00,
2013-08-25 11:40:00,88.2,72.1,30.03,SSW,196,1.0,2.0,59,0.00,,,0.00,728,Wunderground v.1.15,2013-08-25 16:40:00,
2013-08-25 11:50:00,89.0,72.8,30.03,SW,231,1.0,1.0,59,0.00,,,0.00,737,Wunderground v.1.15,2013-08-25 16:50:00,
2013-08-25 12:00:00,89.7,73.0,30.03,SSW,205,1.0,1.0,58,0.00,,,0.00,759,Wunderground v.1.15,2013-08-25 17:00:00,
2013-08-25 12:10:00,89.9,72.1,30.03,SSW,211,1.0,1.0,56,0.00,,,0.00,773,Wunderground v.1.15,2013-08-25 17:10:00,
2013-08-25 12:20:00,90.1,71.8,30.02,WSW,250,2.0,2.0,55,0.00,,,0.00,793,Wunderground v.1.15,2013-08-25 17:20:00,
2013-08-25 12:30:00,90.3,71.9,30.02,SSE,163,3.0,3.0,55,0.00,,,0.00,812,Wunderground v.1.15,2013-08-25 17:30:00,
2013-08-25 12:40:00,90.7,71.2,30.01,SSW,196,2.0,5.0,53,0.00,,,0.00,824,Wunderground v.1.15,2013-08-25 17:40:00,
2013-08-25 12:50:00,91.6,72.6,30.01,SW,217,1.0,3.0,54,0.00,,,0.00,802,Wunderground v.1.15,2013-08-25 17:50:00,
2013-08-25 13:00:00,91.8,72.8,30.01,SW,218,2.0,2.0,54,0.00,,,0.00,823,Wunderground v.1.15,2013-08-25 18:00:00,
2013-08-25 13:10:00,91.8,72.2,30.00,SW,217,2.0,2.0,53,0.00,,,0.00,821,Wunderground v.1.15,2013-08-25 18:10:00,
2013-08-25 13:20:00,92.1,70.8,30.00,SSW,213,2.0,4.0,50,0.00,,,0.00,821,Wunderground v.1.15,2013-08-25 18:20:00,
2013-08-25 13:30:00,92.3,71.6,30.00,SW,220,2.0,2.0,51,0.00,,,0.00,819,Wunderground v.1.15,2013-08-25 18:30:00,
2013-08-25 13:40:00,92.7,71.9,30.00,SSW,203,2.0,2.0,51,0.00,,,0.00,812,Wunderground v.1.15,2013-08-25 18:40:00,
2013-08-25 13:50:00,92.9,72.1,30.00,SSW,208,2.0,2.0,51,0.00,,,0.00,809,Wunderground v.1.15,2013-08-25 18:50:00,
2013-08-25 14:00:00,93.4,71.4,30.00,South,169,2.0,2.0,49,0.00,,,0.00,810,Wunderground v.1.15,2013-08-25 19:00:00,
2013-08-25 14:10:00,93.6,71.0,29.99,ESE,115,2.0,2.0,48,0.00,,,0.00,805,Wunderground v.1.15,2013-08-25 19:10:00,
2013-08-25 14:20:00,94.0,71.9,29.99,SW,222,1.0,1.0,49,0.00,,,0.00,796,Wunderground v.1.15,2013-08-25 19:20:00,
2013-08-25 14:30:00,94.3,72.2,29.99,SW,218,2.0,2.0,49,0.00,,,0.00,789,Wunderground v.1.15,2013-08-25 19:30:00,
2013-08-25 14:40:00,94.0,70.7,29.99,SSE,165,3.0,3.0,47,0.00,,,0.00,772,Wunderground v.1.15,2013-08-25 19:40:00,
2013-08-25 14:50:00,94.5,71.8,29.98,SSW,209,2.0,2.0,48,0.00,,,0.00,761,Wunderground v.1.15,2013-08-25 19:50:00,
2013-08-25 15:00:00,94.5,71.8,29.98,SSW,205,2.0,2.0,48,0.00,,,0.00,749,Wunderground v.1.15,2013-08-25 20:00:00,
2013-08-25 15:10:00,94.9,70.9,29.98,SSE,153,1.0,5.0,46,0.00,,,0.00,731,Wunderground v.1.15,2013-08-25 20:10:00,
2013-08-25 15:20:00,94.7,71.3,29.98,SSE,167,2.0,3.0,47,0.00,,,0.00,721,Wunderground v.1.15,2013-08-25 20:20:00,
2013-08-25 15:30:00,94.9,70.9,29.98,South,180,2.0,3.0,46,0.00,,,0.00,703,Wunderground v.1.15,2013-08-25 20:30:00,
2013-08-25 15:40:00,94.9,72.1,29.98,SW,214,2.0,2.0,48,0.00,,,0.00,684,Wunderground v.1.15,2013-08-25 20:40:00,
2013-08-25 15:50:00,94.9,70.9,29.98,SSW,207,2.0,4.0,46,0.00,,,0.00,656,Wunderground v.1.15,2013-08-25 20:50:00,
2013-08-25 16:00:00,94.9,70.2,29.98,SW,227,2.0,2.0,45,0.00,,,0.00,638,Wunderground v.1.15,2013-08-25 21:00:00,
2013-08-25 16:10:00,94.9,71.5,29.97,SSE,161,1.0,1.0,47,0.00,,,0.00,617,Wunderground v.1.15,2013-08-25 21:10:00,
2013-08-25 16:20:00,94.9,72.1,29.97,SSE,151,1.0,1.0,48,0.00,,,0.00,585,Wunderground v.1.15,2013-08-25 21:20:00,
2013-08-25 16:30:00,94.9,71.5,29.97,SW,223,1.0,1.0,47,0.00,,,0.00,563,Wunderground v.1.15,2013-08-25 21:30:00,
2013-08-25 16:40:00,94.5,71.8,29.97,SE,144,1.0,1.0,48,0.00,,,0.00,540,Wunderground v.1.15,2013-08-25 21:40:00,
2013-08-25 16:50:00,94.5,72.4,29.97,SSE,159,2.0,2.0,49,0.00,,,0.00,512,Wunderground v.1.15,2013-08-25 21:50:00,
2013-08-25 17:00:00,94.5,71.8,29.97,South,172,1.0,4.0,48,0.00,,,0.00,482,Wunderground v.1.15,2013-08-25 22:00:00,
2013-08-25 17:10:00,94.3,72.2,29.97,SE,141,1.0,4.0,49,0.00,,,0.00,457,Wunderground v.1.15,2013-08-25 22:10:00,
2013-08-25 17:20:00,94.3,71.6,29.97,SW,225,1.0,1.0,48,0.00,,,0.00,431,Wunderground v.1.15,2013-08-25 22:20:00,
2013-08-25 17:30:00,93.8,71.7,29.97,SW,223,1.0,1.0,49,0.00,,,0.00,397,Wunderground v.1.15,2013-08-25 22:30:00,
2013-08-25 17:40:00,93.6,72.2,29.97,SSE,149,1.0,1.0,50,0.00,,,0.00,367,Wunderground v.1.15,2013-08-25 22:40:00,
2013-08-25 17:50:00,93.6,73.3,29.97,SSW,197,1.0,3.0,52,0.00,,,0.00,343,Wunderground v.1.15,2013-08-25 22:50:00,
2013-08-25 18:00:00,93.4,73.1,29.97,SSE,161,1.0,1.0,52,0.00,,,0.00,302,Wunderground v.1.15,2013-08-25 23:00:00,
2013-08-25 18:10:00,92.9,72.7,29.97,SSW,200,1.0,1.0,52,0.00,,,0.00,276,Wunderground v.1.15,2013-08-25 23:10:00,
2013-08-25 18:20:00,92.5,72.9,29.97,SSW,198,1.0,1.0,53,0.00,,,0.00,244,Wunderground v.1.15,2013-08-25 23:20:00,
2013-08-25 18:30:00,92.3,73.8,29.97,SSW,195,0.0,0.0,55,0.00,,,0.00,209,Wunderground v.1.15,2013-08-25 23:30:00,
2013-08-25 18:40:00,91.6,73.7,29.98,SW,229,1.0,1.0,56,0.00,,,0.00,162,Wunderground v.1.15,2013-08-25 23:40:00,
2013-08-25 18:50:00,91.0,73.7,29.98,SE,135,0.0,0.0,57,0.00,,,0.00,156,Wunderground v.1.15,2013-08-25 23:50:00,
2013-08-25 19:00:00,90.7,73.9,29.98,SSE,153,0.0,0.0,58,0.00,,,0.00,134,Wunderground v.1.15,2013-08-26 00:00:00,
2013-08-25 19:10:00,89.9,73.7,29.98,ESE,123,0.0,0.0,59,0.00,,,0.00,95,Wunderground v.1.15,2013-08-26 00:10:00,
2013-08-25 19:20:00,89.0,72.8,29.97,SE,143,0.0,0.0,59,0.00,,,0.00,30,Wunderground v.1.15,2013-08-26 00:20:00,
2013-08-25 19:30:00,88.4,72.2,29.97,South,183,0.0,0.0,59,0.00,,,0.00,26,Wunderground v.1.15,2013-08-26 00:30:00,
2013-08-25 19:40:00,87.6,72.0,29.97,SSE,155,0.0,0.0,60,0.00,,,0.00,19,Wunderground v.1.15,2013-08-26 00:40:00,
2013-08-25 19:50:00,87.2,71.6,29.97,SSW,194,0.0,0.0,60,0.00,,,0.00,12,Wunderground v.1.15,2013-08-26 00:50:00,
2013-08-25 20:00:00,86.5,71.9,29.97,ESE,111,0.0,0.0,62,0.00,,,0.00,7,Wunderground v.1.15,2013-08-26 01:00:00,
2013-08-25 20:10:00,86.1,72.0,29.98,SSE,150,0.0,0.0,63,0.00,,,0.00,0,Wunderground v.1.15,2013-08-26 01:10:00,
2013-08-25 20:20:00,85.3,72.2,29.98,SSE,149,0.0,0.0,65,0.00,,,0.00,0,Wunderground v.1.15,2013-08-26 01:20:00,
2013-08-25 20:30:00,84.3,72.6,29.98,ESE,103,0.0,0.0,68,0.00,,,0.00,0,Wunderground v.1.15,2013-08-26 01:30:00,
2013-08-25 20:40:00,83.6,72.8,29.98,ESE,103,0.0,0.0,70,0.00,,,0.00,0,Wunderground v.1.15,2013-08-26 01:40:00,
2013-08-25 20:50:00,83.2,72.8,29.98,ESE,117,0.0,0.0,71,0.00,,,0.00,0,Wunderground v.1.15,2013-08-26 01:50:00,
2013-08-25 21:00:00,82.8,72.8,29.98,ESE,117,0.0,0.0,72,0.00,,,0.00,0,Wunderground v.1.15,2013-08-26 02:00:00,
2013-08-25 21:10:00,82.2,73.1,29.99,ESE,113,0.0,0.0,74,0.00,,,0.00,0,Wunderground v.1.15,2013-08-26 02:10:00,
2013-08-25 21:30:00,81.1,72.8,29.99,ESE,113,0.0,0.0,76,0.00,,,0.00,0,Wunderground v.1.15,2013-08-26 02:30:00,
2013-08-25 21:40:00,80.9,73.0,30.00,ESE,116,0.0,0.0,77,0.00,,,0.00,0,Wunderground v.1.15,2013-08-26 02:40:00,
2013-08-25 21:50:00,80.9,73.0,30.00,SE,144,0.0,0.0,77,0.00,,,0.00,0,Wunderground v.1.15,2013-08-26 02:50:00,
2013-08-25 22:00:00,80.9,73.0,30.00,SSE,165,0.0,0.0,77,0.00,,,0.00,0,Wunderground v.1.15,2013-08-26 03:00:00,
2013-08-25 22:10:00,80.9,73.0,30.00,SE,143,0.0,0.0,77,0.00,,,0.00,0,Wunderground v.1.15,2013-08-26 03:10:00,
2013-08-25 22:20:00,80.9,72.6,30.00,SSE,156,0.0,0.0,76,0.00,,,0.00,0,Wunderground v.1.15,2013-08-26 03:20:00,
2013-08-25 22:30:00,80.9,72.6,30.00,ESE,122,0.0,0.0,76,0.00,,,0.00,0,Wunderground v.1.15,2013-08-26 03:30:00,
2013-08-25 22:40:00,80.7,72.4,30.00,ESE,116,0.0,0.0,76,0.00,,,0.00,0,Wunderground v.1.15,2013-08-26 03:40:00,
2013-08-25 22:50:00,80.5,72.2,30.01,ESE,116,0.0,0.0,76,0.00,,,0.00,0,Wunderground v.1.15,2013-08-26 03:50:00,
2013-08-25 23:00:00,80.3,72.0,30.01,South,182,0.0,0.0,76,0.00,,,0.00,0,Wunderground v.1.15,2013-08-26 04:00:00,
2013-08-25 23:10:00,80.1,71.8,30.00,NE,54,0.0,0.0,76,0.00,,,0.00,0,Wunderground v.1.15,2013-08-26 04:10:00,
2013-08-25 23:20:00,79.9,71.7,30.00,SE,126,0.0,0.0,76,0.00,,,0.00,0,Wunderground v.1.15,2013-08-26 04:20:00,
2013-08-25 23:30:00,79.8,71.6,30.00,SSE,161,0.0,0.0,76,0.00,,,0.00,0,Wunderground v.1.15,2013-08-26 04:30:00,
2013-08-25 23:40:00,79.6,71.4,30.00,SSE,161,0.0,0.0,76,0.00,,,0.00,0,Wunderground v.1.15,2013-08-26 04:40:00,
2013-08-25 23:50:00,79.4,70.8,30.01,SSE,149,0.0,0.0,75,0.00,,,0.00,0,Wunderground v.1.15,2013-08-26 04:50:00,